Location: Unspecified
(41.5000°N, 0.0000°E)
Time: 15:46:30
(UTC+00:00)

Vanguard 1 - Pass Details

Date: 21 June 2019
Orbit: 653 x 3830 km, 34.3° (Epoch: 22 July)

Event Time Altitude Azimuth Distance (km) Brightness Sun altitude
Exits shadow 03:07:47 13° 232° (SW) 5,865 13.3 -12.1°
Maximum altitude 03:23:00 50° 166° (SSE) 2,638 12.0 -10.1°
Drops below altitude 10° 03:32:20 10° 94° (E) 3,617 13.6 -8.8°
Sets 03:34:48 0° 89° (E) 4,295 14.2 -8.5°
